TimeCDT,TemperatureF,Dew PointF,Humidity,Sea Level PressureIn,VisibilityMPH,Wind Direction,Wind SpeedMPH,Gust SpeedMPH,PrecipitationIn,Events,Conditions,WindDirDegrees,DateUTC
12:15 AM,59.0,53.6,82,30.08,10.0,NNE,8.1,-,N/A,,Clear,20,2012-10-08 05:15:00
12:35 AM,59.0,53.6,82,30.07,10.0,North,5.8,-,N/A,,Clear,360,2012-10-08 05:35:00
12:55 AM,59.0,51.8,77,30.07,10.0,North,6.9,-,N/A,,Clear,360,2012-10-08 05:55:00
1:15 AM,59.0,51.8,77,30.06,10.0,North,8.1,-,N/A,,Clear,360,2012-10-08 06:15:00
1:35 AM,57.2,51.8,82,30.06,10.0,North,8.1,-,N/A,,Clear,360,2012-10-08 06:35:00
1:55 AM,57.2,51.8,82,30.07,10.0,North,6.9,-,N/A,,Clear,10,2012-10-08 06:55:00
2:15 AM,57.2,50.0,77,30.07,10.0,North,8.1,-,N/A,,Clear,10,2012-10-08 07:15:00
2:35 AM,57.2,50.0,77,30.06,10.0,North,9.2,-,N/A,,Clear,10,2012-10-08 07:35:00
2:55 AM,57.2,50.0,77,30.05,10.0,North,10.4,16.1,N/A,,Clear,10,2012-10-08 07:55:00
3:15 AM,55.4,50.0,82,30.05,10.0,North,10.4,-,N/A,,Clear,10,2012-10-08 08:15:00
3:35 AM,57.2,50.0,77,30.04,10.0,NNE,8.1,-,N/A,,Mostly Cloudy,30,2012-10-08 08:35:00
3:55 AM,57.2,50.0,77,30.05,10.0,North,5.8,-,N/A,,Overcast,10,2012-10-08 08:55:00
4:15 AM,57.2,50.0,77,30.05,10.0,North,4.6,-,N/A,,Overcast,360,2012-10-08 09:15:00
4:35 AM,57.2,50.0,77,30.05,10.0,North,4.6,-,N/A,,Overcast,360,2012-10-08 09:35:00
4:55 AM,57.2,50.0,77,30.05,10.0,North,5.8,-,N/A,,Overcast,10,2012-10-08 09:55:00
5:15 AM,55.4,50.0,82,30.05,10.0,NNE,4.6,-,N/A,,Scattered Clouds,20,2012-10-08 10:15:00
5:35 AM,55.4,50.0,82,30.05,10.0,North,5.8,-,N/A,,Mostly Cloudy,10,2012-10-08 10:35:00
5:55 AM,55.4,50.0,82,30.05,10.0,NNE,4.6,-,N/A,,Mostly Cloudy,30,2012-10-08 10:55:00
6:15 AM,55.4,50.0,82,30.06,10.0,North,4.6,-,N/A,,Mostly Cloudy,360,2012-10-08 11:15:00
6:35 AM,55.4,50.0,82,30.07,10.0,North,3.5,-,N/A,,Scattered Clouds,350,2012-10-08 11:35:00
6:55 AM,53.6,50.0,88,30.08,10.0,NNW,5.8,-,N/A,,Clear,340,2012-10-08 11:55:00
7:15 AM,53.6,50.0,88,30.09,10.0,North,3.5,-,N/A,,Clear,350,2012-10-08 12:15:00
7:35 AM,55.4,50.0,82,30.10,10.0,NNW,4.6,-,N/A,,Clear,340,2012-10-08 12:35:00
8:15 AM,57.2,50.0,77,30.10,10.0,North,6.9,-,N/A,,Clear,360,2012-10-08 13:15:00
8:55 AM,60.8,50.0,68,30.12,10.0,NNW,9.2,-,N/A,,Clear,340,2012-10-08 13:55:00
9:15 AM,62.6,50.0,63,30.12,10.0,North,5.8,-,N/A,,Clear,360,2012-10-08 14:15:00
9:35 AM,64.4,51.8,64,30.12,10.0,North,8.1,-,N/A,,Clear,10,2012-10-08 14:35:00
9:55 AM,64.4,51.8,64,30.13,10.0,North,10.4,-,N/A,,Clear,10,2012-10-08 14:55:00
10:15 AM,68.0,51.8,56,30.13,10.0,NNE,12.7,-,N/A,,Clear,20,2012-10-08 15:15:00
10:35 AM,68.0,51.8,56,30.12,10.0,North,6.9,-,N/A,,Clear,10,2012-10-08 15:35:00
10:55 AM,69.8,51.8,53,30.12,10.0,North,10.4,-,N/A,,Clear,10,2012-10-08 15:55:00
11:15 AM,69.8,51.8,53,30.11,10.0,North,8.1,-,N/A,,Clear,360,2012-10-08 16:15:00
11:35 AM,69.8,51.8,53,30.11,10.0,North,8.1,-,N/A,,Clear,350,2012-10-08 16:35:00
12:15 PM,71.6,51.8,50,30.10,10.0,North,6.9,-,N/A,,Clear,360,2012-10-08 17:15:00
12:35 PM,73.4,53.6,50,30.09,10.0,North,6.9,-,N/A,,Clear,360,2012-10-08 17:35:00
12:55 PM,73.4,53.6,50,30.09,5.0,North,6.9,-,N/A,,Haze,360,2012-10-08 17:55:00
1:15 PM,73.4,53.6,50,30.07,10.0,NNW,8.1,-,N/A,,Clear,340,2012-10-08 18:15:00
1:35 PM,73.4,53.6,50,30.07,10.0,NW,10.4,-,N/A,,Clear,310,2012-10-08 18:35:00
1:55 PM,75.2,55.4,50,30.06,10.0,NW,10.4,17.3,N/A,,Clear,310,2012-10-08 18:55:00
2:15 PM,75.2,53.6,47,30.05,10.0,NNW,10.4,18.4,N/A,,Clear,330,2012-10-08 19:15:00
2:35 PM,75.2,53.6,47,30.04,10.0,NW,10.4,-,N/A,,Clear,310,2012-10-08 19:35:00
2:55 PM,77.0,55.4,47,30.04,10.0,NW,6.9,-,N/A,,Clear,320,2012-10-08 19:55:00
3:15 PM,77.0,55.4,47,30.04,10.0,NNW,5.8,-,N/A,,Clear,330,2012-10-08 20:15:00
3:35 PM,77.0,55.4,47,30.03,10.0,NNW,10.4,-,N/A,,Clear,330,2012-10-08 20:35:00
3:55 PM,75.2,55.4,50,30.04,10.0,NW,9.2,-,N/A,,Clear,320,2012-10-08 20:55:00
4:15 PM,75.2,55.4,50,30.04,10.0,NW,9.2,17.3,N/A,,Clear,320,2012-10-08 21:15:00
4:35 PM,75.2,55.4,50,30.04,10.0,NNW,8.1,-,N/A,,Clear,330,2012-10-08 21:35:00
4:55 PM,75.2,55.4,50,30.04,10.0,NNW,8.1,-,N/A,,Clear,340,2012-10-08 21:55:00
5:15 PM,73.4,55.4,53,30.04,10.0,NNW,6.9,-,N/A,,Clear,340,2012-10-08 22:15:00
5:55 PM,71.6,55.4,57,30.05,10.0,NNW,5.8,-,N/A,,Clear,340,2012-10-08 22:55:00
6:15 PM,69.8,55.4,60,30.05,10.0,NNW,5.8,-,N/A,,Clear,340,2012-10-08 23:15:00
6:35 PM,68.0,55.4,64,30.06,10.0,NNW,3.5,-,N/A,,Clear,330,2012-10-08 23:35:00
6:55 PM,68.0,55.4,64,30.07,10.0,NNW,3.5,-,N/A,,Clear,340,2012-10-08 23:55:00
7:15 PM,66.2,55.4,68,30.07,10.0,NNW,4.6,-,N/A,,Clear,340,2012-10-09 00:15:00
7:35 PM,66.2,55.4,68,30.08,10.0,North,4.6,-,N/A,,Clear,350,2012-10-09 00:35:00
8:15 PM,64.4,53.6,68,30.09,10.0,NNW,6.9,-,N/A,,Clear,340,2012-10-09 01:15:00
8:35 PM,64.4,53.6,68,30.10,10.0,North,4.6,-,N/A,,Clear,350,2012-10-09 01:35:00
8:55 PM,62.6,53.6,72,30.10,10.0,NNW,4.6,-,N/A,,Clear,340,2012-10-09 01:55:00
9:15 PM,62.6,53.6,72,30.10,10.0,North,3.5,-,N/A,,Clear,350,2012-10-09 02:15:00
9:35 PM,60.8,53.6,77,30.10,10.0,North,3.5,-,N/A,,Clear,350,2012-10-09 02:35:00
9:55 PM,60.8,53.6,77,30.10,10.0,North,4.6,-,N/A,,Clear,360,2012-10-09 02:55:00
10:15 PM,60.8,53.6,77,30.10,10.0,NNW,3.5,-,N/A,,Clear,340,2012-10-09 03:15:00
10:35 PM,60.8,53.6,77,30.10,10.0,North,4.6,-,N/A,,Clear,350,2012-10-09 03:35:00
10:55 PM,60.8,53.6,77,30.10,10.0,North,6.9,-,N/A,,Clear,10,2012-10-09 03:55:00
11:15 PM,60.8,51.8,72,30.10,10.0,North,4.6,-,N/A,,Clear,350,2012-10-09 04:15:00
11:35 PM,60.8,51.8,72,30.10,10.0,North,5.8,-,N/A,,Clear,360,2012-10-09 04:35:00